KC5EZZ-4 Weather Reports


time (UTC)temp
C
wind
direction
speed
KPH
gust
KPH
rain 1hr
cm
rain 24hr
cm
rain mn
cm
humidity
%
barometer
mb
20211017152213 17 246 0.0 0.0 0.00 0.00 0.00
20211017151651 15 229 0.0 3.2 0.00 0.00 0.00 64 1030.1
20211017150114 14 229 1.6 4.8 0.00 0.00 0.00 70 1030.2
20211017145707 25 163 0.0 0.0 0.00 0.00 0.00
20211017145207 25 163 0.0 0.0 0.00 0.00 0.00
20211017144620 12 229 1.6 4.8 0.00 0.00 0.00 74 1030.0
20211017143130 12 229 1.6 4.8 0.00 0.00 0.00 75 1030.0
20211017141616 11 229 0.0 4.8 0.00 0.00 0.00 75 1029.9
20211017140049 11 219 0.0 1.6 0.00 0.00 0.00 79 1029.8
20211017135428 18 218 3.2 3.2 0.00 0.00 0.00
20211017134553 8 213 0.0 4.8 0.00 0.00 0.00 80 1029.6
20211017133101 7 213 0.0 1.6 0.00 0.00 0.00 81 1029.4
20211017132333 9 165 0.0 0.0 0.00 0.00 0.00
20211017131555 5 212 0.0 0.0 0.00 0.00 0.00 82 1029.4
20211017130954 6 198 1.6 1.6 0.00 0.00 0.00
20211017130031 4 213 0.0 0.0 0.00 0.00 0.00 82 1029.3
20211017124542 4 213 0.0 3.2 0.00 0.00 0.00 82 1029.3
20211017124331 3 195 1.6 3.2 0.00 0.00 0.00
20211017123025 4 213 0.0 0.0 0.00 0.00 0.00 82 1029.3
20211017121525 4 213 0.0 1.6 0.00 0.00 0.00 82 1029.3
20211017120107 4 213 0.0 3.2 0.00 0.00 0.00 82 1029.2
20211017114648 4 213 0.0 3.2 0.00 0.00 0.00 82 1029.2
20211017113120 4 213 0.0 3.2 0.00 0.00 0.00 82 1029.0
20211017111606 4 213 0.0 0.0 0.00 0.00 0.00 82 1029.1
20211017110207 5 213 0.0 0.0 0.00 0.00 0.00 82 1029.1
20211017104707 5 213 0.0 0.0 0.00 0.00 0.00 81 1029.1
20211017103122 5 213 0.0 0.0 0.00 0.00 0.00 81 1029.1
20211017101549 5 213 0.0 0.0 0.00 0.00 0.00 81 1029.1
20211017100101 5 213 0.0 3.2 0.00 0.00 0.00 81 1029.1
20211017094600 5 213 0.0 3.2 0.00 0.00 0.00 81 1029.0
20211017093029 5 213 0.0 0.0 0.00 0.00 0.00 81 1029.1
20211017091555 6 213 0.0 0.0 0.00 0.00 0.00 81 1029.0
20211017090042 6 213 0.0 0.0 0.00 0.00 0.00 81 1029.1
20211017084535 6 213 0.0 0.0 0.00 0.00 0.00 81 1029.1
20211017083055 6 213 0.0 0.0 0.00 0.00 0.00 81 1029.1
20211017081536 6 213 0.0 0.0 0.00 0.00 0.00 80 1029.2
20211017080024 6 213 0.0 0.0 0.00 0.00 0.00 80 1029.3
20211017074519 6 213 0.0 0.0 0.00 0.00 0.00 80 1029.3
20211017073023 6 213 0.0 0.0 0.00 0.00 0.00 80 1029.5
20211017071501 6 213 0.0 0.0 0.00 0.00 0.00 80 1029.4
20211017070125 7 213 0.0 0.0 0.00 0.00 0.00 80 1029.2
20211017064735 7 213 0.0 0.0 0.00 0.00 0.00 80 1029.2
20211017063141 7 213 0.0 0.0 0.00 0.00 0.00 80 1029.2
20211017061623 7 213 0.0 0.0 0.00 0.00 0.00 79 1029.2
20211017060203 7 213 1.6 4.8 0.00 0.00 0.00 79 1029.5
20211017054620 7 211 0.0 3.2 0.00 0.00 0.00 78 1029.5
20211017053114 7 210 0.0 0.0 0.00 0.00 0.00 79 1029.5
20211017051617 7 182 0.0 0.0 0.00 0.00 0.00 78 1029.4
20211017050109 7 182 0.0 0.0 0.00 0.00 0.00 78 1029.5
20211017044616 8 182 0.0 0.0 0.00 0.00 0.00 77 1029.5
20211017043122 8 182 0.0 0.0 0.00 0.00 0.00 76 1029.4
20211017041538 8 182 0.0 0.0 0.00 0.00 0.00 76 1029.4
20211017040047 8 182 0.0 0.0 0.00 0.00 0.00 75 1029.3
20211017034612 8 180 0.0 0.0 0.00 0.00 0.00 75 1029.3
20211017033058 8 180 0.0 1.6 0.00 0.00 0.00 72 1029.4
20211017031513 10 161 0.0 0.0 0.00 0.00 0.00 69 1029.3
20211017030016 11 161 0.0 0.0 0.00 0.00 0.00 66 1029.1
20211017024504 12 107 0.0 0.0 0.00 0.00 0.00 62 1028.9
20211017023019 12 107 0.0 0.0 0.00 0.00 0.00 64 1028.7
20211017021659 12 107 0.0 0.0 0.00 0.00 0.00 62 1028.6
20211017020147 13 107 0.0 0.0 0.00 0.00 0.00 59 1028.6
20211017014642 13 107 0.0 0.0 0.00 0.00 0.00 57 1028.5
20211017013316 14 107 0.0 0.0 0.00 0.00 0.00 53 1028.5
20211017011621 15 107 0.0 4.8 0.00 0.00 0.00 49 1028.3
20211017010207 15 107 1.6 4.8 0.00 0.00 0.00 46 1028.2
20211017004553 16 107 0.0 3.2 0.00 0.00 0.00 47 1028.1
20211017003044 16 107 1.6 4.8 0.00 0.00 0.00 43 1028.1
20211017001606 17 107 0.0 3.2 0.00 0.00 0.00 41 1028.1
20211017000040 17 108 0.0 1.6 0.00 0.00 0.00 38 1028.1
20211016234526 18 79 4.8 9.7 0.00 0.00 0.00 33 1028.3
20211016233023 19 97 1.6 6.4 0.00 0.00 0.00 30 1028.3
20211016231505 20 102 6.4 19.3 0.00 0.00 0.00 29 1028.3
20211016230132 20 103 6.4 14.5 0.00 0.00 0.00 29 1028.3
20211016224643 20 78 8.0 11.3 0.00 0.00 0.00 28 1028.2
20211016223154 20 28 8.0 17.7 0.00 0.00 0.00 29 1028.2
20211016221657 20 82 3.2 12.9 0.00 0.00 0.00 29 1028.3
20211016220133 20 93 11.3 22.5 0.00 0.00 0.00 29 1028.5
20211016214703 20 355 8.0 16.1 0.00 0.00 0.00 28 1028.5
20211016213149 20 84 8.0 14.5 0.00 0.00 0.00 27 1028.8
20211016211619 20 133 9.7 17.7 0.00 0.00 0.00 27 1028.6
20211016210142 20 106 6.4 16.1 0.00 0.00 0.00 28 1028.9
20211016204548 20 12 8.0 14.5 0.00 0.00 0.00 29 1029.0
20211016203058 20 120 6.4 16.1 0.00 0.00 0.00 27 1029.1
20211016201609 20 51 6.4 17.7 0.00 0.00 0.00 28 1029.3
20211016200043 19 128 0.0 8.0 0.00 0.00 0.00 27 1029.6
20211016194540 20 29 8.0 24.1 0.00 0.00 0.00 29 1029.9
20211016193114 19 70 9.7 17.7 0.00 0.00 0.00 30 1030.0
20211016191614 19 86 4.8 14.5 0.00 0.00 0.00 29 1030.2
20211016190057 19 101 11.3 19.3 0.00 0.00 0.00 28 1030.5
20211016184524 19 56 6.4 14.5 0.00 0.00 0.00 36 1030.8
20211016183011 18 182 4.8 14.5 0.00 0.00 0.00 38 1031.2
20211016181515 18 27 4.8 14.5 0.00 0.00 0.00 38 1031.5
20211016180028 18 124 8.0 16.1 0.00 0.00 0.00 38 1031.9
20211016174507 18 15 4.8 14.5 0.00 0.00 0.00 37 1032.1
20211016173013 18 55 9.7 22.5 0.00 0.00 0.00 34 1032.2
20211016171505 18 19 8.0 19.3 0.00 0.00 0.00 36 1032.2
20211016170011 18 349 0.0 4.8 0.00 0.00 0.00 43 1032.4
20211016164619 17 229 0.0 8.0 0.00 0.00 0.00 47 1032.6
20211016163142 18 19 4.8 6.4 0.00 0.00 0.00 46 1032.6
20211016161552 17 257 0.0 4.8 0.00 0.00 0.00 54 1032.6
20211016160124 17 252 1.6 3.2 0.00 0.00 0.00 52 1032.7
20211016154554 17 262 0.0 3.2 0.00 0.00 0.00 57 1032.6
20211016153047 16 257 0.0 3.2 0.00 0.00 0.00 56 1032.6